User: anonymous   Login
Location: Unspecified
(0.0000°N, 0.0000°E)
Time: 00:51:17
(UTC+00:00)
Language:

USA 274 - Orbit

View from above orbital plane
View from above orbital plane
View from above satellite
View from above satellite

Ground track
Ground track

The orbit data is extracted from the following two-line orbital elements,

1 42058U 17011A   18343.77944263 0.00000000  00000-0  00000-0 0    03
2 42058  63.4390 301.8828 0074000 173.9119 186.0881 13.40773880    01
Epoch (UTC): 09 December 2018 18:42:23
Eccentricity: 0.0074000
inclination: 63.4390°
perigee height: 1051 km
apogee height: 1162 km
right ascension of ascending node: 301.8828°
argument of perigee: 173.9119°
revolutions per day: 13.40773880
mean anomaly at epoch: 186.0881°
orbit number at epoch: 0

The dashed part of the orbit path shows where the satellite is in the earth's shadow,  

DLR